Location: Washington Area Law Enforcement Officers Memorial
(38.8957°N, 77.0175°W)
Time: 00:54:41
(UTC+00:00)

Daily predictions for brighter satellites

Satellite Brightness Start Highest point End
(mag) Time Altitude Azimuth Time Altitude Azimuth Time Altitude Azimuth
CZ-2C R/B 4.0 00:33:07 10° N 00:38:19 48° WNW 00:43:36 10° SW
CZ-4 R/B 3.8 00:38:58 10° SSW 00:42:17 24° W 00:45:34 10° NW
Ariane Rocket 3.8 00:38:00 10° SE 00:42:31 34° ENE 00:47:04 10° N
USA 290 2.7 00:40:17 10° N 00:43:24 42° ENE 00:46:27 10° SE
SAR-Lupe-4 3.9 00:40:05 10° N 00:43:41 72° WNW 00:47:14 10° SSW
Cosmos 1500 Rocket 3.8 00:43:38 10° NNW 00:47:59 72° W 00:52:17 10° S
Intercosmos 25 Rocket 3.5 00:45:58 10° N 00:51:00 65° E 00:54:26 10° SSE
DELTA 2 R/B (1) 3.9 00:46:50 10° W 00:52:18 58° SSW 00:57:37 11° SE
OAO 3 Rocket 4.5 00:49:26 10° SSW 00:52:50 20° SSE 00:56:16 10° ESE
Cosmos 1933 3.4 00:49:11 10° S 00:53:08 55° E 00:57:04 10° NNE
Resurs 1-3 4.3 00:50:26 10° SE 00:54:26 36° ENE 00:58:28 10° N
Tianhe-1 2.9 00:52:52 10° S 00:54:44 15° SE 00:56:12 12° ESE
Cosmos 1437 4.2 00:54:19 11° SE 00:55:57 16° E 00:57:49 10° NE
Cosmos 1844 Rocket 4.1 00:51:33 10° SW 00:56:50 43° WNW 01:02:09 10° N
Cosmos 1666 Rocket 4.4 00:53:49 10° NNE 00:57:44 31° ENE 01:01:26 11° SE
Meteor 1-20 Rocket 4.4 00:52:20 10° N 00:57:48 54° ENE 01:03:09 10° SSE
Cosmos 2278 Rocket 2.9 00:53:36 10° SSE 00:58:28 30° ESE 01:03:20 10° NE
Cosmos 1782 3.6 00:55:40 10° SSE 00:59:15 33° E 01:02:50 10° NNE
SJ 16-02 2.9 00:59:40 11° SE 01:02:14 17° E 01:05:06 10° NE
Cosmos 1812 4.5 01:02:33 13° ESE 01:04:13 16° E 01:06:36 10° NE
Sich 1 3.0 01:01:32 10° N 01:05:53 70° E 01:10:14 10° SSE
Cosmos 2084 3.9 01:05:14 10° SW 01:09:18 63° NW 01:13:29 10° NNE
Cosmos 1386 Rocket 4.4 01:04:01 10° N 01:10:06 81° E 01:16:15 10° S
Intercosmos 24 3.6 01:06:24 10° S 01:10:10 88° W 01:13:46 10° N
SJ-6B 3.0 01:06:46 10° S 01:10:37 75° WSW 01:14:37 10° NNW
Cosmos 1354 Rocket 4.2 01:06:07 10° SSW 01:11:20 78° WNW 01:16:36 10° NNE
CZ-4C R/B 3.6 01:05:47 10° NNW 01:12:46 44° NE 01:19:33 14° ESE
ATLAS 5 CENTAUR R/B 2.5 01:07:52 10° NNW 01:13:44 84° ENE 01:19:48 14° SE
Cosmos 1151 Rocket 3.2 01:11:04 10° S 01:15:18 54° E 01:19:35 10° NNE
NOSS 3-3 (A) 4.1 01:13:36 10° SW 01:19:12 74° NW 01:25:35 10° NNE
NOSS 3-3 (C) 4.1 01:13:42 10° SW 01:19:19 74° NW 01:25:41 10° NNE
Cosmos 883 Rocket 4.5 01:16:19 10° S 01:22:35 76° E 01:28:56 10° N
Cosmos 1745 Rocket 4.3 01:23:11 10° NNW 01:29:18 69° W 01:35:22 10° S
IGS 5A 3.9 01:27:12 21° SE 01:29:35 43° ENE 01:33:31 10° N
BREEZE M DEB (TANK) 4.4 01:26:44 10° NW 01:30:37 18° N 01:32:46 10° NE
Cosmos 1709 Rocket 3.9 01:25:21 10° N 01:31:27 70° E 01:36:46 14° SSE
Cosmos 1833 Rocket 3.3 01:31:26 10° N 01:36:49 43° ENE 01:39:58 23° ESE
USA 306 4.5 01:33:58 10° NNW 01:37:36 26° NNE 01:40:20 15° E
Cosmos 1500 3.5 01:36:48 10° N 01:40:24 44° E 01:41:40 31° SE
SPOT 3 Rocket 3.6 01:37:38 21° SSE 01:41:02 63° ENE 01:46:08 10° N
CZ-2C R/B 3.9 01:37:32 10° NNE 01:41:56 50° E 01:44:53 20° S
Cosmos 1242 Rocket 4.5 01:39:22 10° SW 01:42:33 30° WNW 01:45:43 10° NNW
Cosmos 773 Rocket 4.0 01:38:34 10° NNW 01:43:53 77° ENE 01:47:07 24° SSE
Resurs 01 Rocket 1.6 01:41:40 23° SSE 01:44:25 76° ENE 01:48:53 10° N
GPS 2-04 Rocket1 2.9 01:43:47 10° WSW 01:47:50 54° S 01:49:13 35° ESE
Spot 2 Rocket 4.4 01:47:58 25° ESE 01:49:55 33° ENE 01:54:25 10° N
Meteor 1-5 Rocket 4.5 01:44:49 10° N 01:49:57 46° ENE 01:52:15 29° SE
ERS-1 Rocket 4.4 01:49:56 20° E 01:51:30 23° ENE 01:55:23 10° NNE
CRYOSAT 2 4.3 01:49:10 25° SSE 01:52:02 68° E 01:56:54 10° N
X-37B 0.8 01:50:45 10° WNW 01:53:54 55° SSW 01:54:18 50° S
Cosmos 1515 Rocket 3.5 01:53:19 26° S 01:55:43 67° E 02:00:04 10° NNE
Cosmos 2315 Rocket 4.3 01:51:02 10° SSW 01:57:22 71° W 02:03:45 10° N
OBJECT-B 3.7 01:58:12 10° WSW 01:59:45 13° W 02:01:18 10° WNW
Delta 2 Rocket 3.7 01:56:38 10° WSW 02:01:38 56° S 02:03:03 39° ESE
Meteor 1-10 Rocket 4.3 02:00:51 28° SSE 02:03:36 55° E 02:09:06 10° NNE
Cosmos 1633 Rocket 3.7 02:00:50 10° NNW 02:05:08 52° W 02:07:58 20° SSW
USA 307 3.9 02:01:21 10° NW 02:05:21 37° NE 02:06:53 28° ENE
Cosmos 1271 Rocket 2.7 02:11:54 56° SE 02:12:26 64° E 02:16:24 10° NNE
ISS -1.5 02:12:43 10° SW 02:13:27 16° SW 02:13:27 16° SW
Terra 3.0 02:17:08 26° E 02:17:42 26° ENE 02:21:39 10° NNE
USA 308 3.6 02:15:00 10° NW 02:19:08 46° NE 02:20:06 39° ENE
Cosmos 1470 Rocket 3.8 02:15:18 10° NNW 02:19:45 66° W 02:21:26 36° SSW
MetOp-B 4.3 02:18:33 31° S 02:21:08 72° WSW 02:26:30 10° NNW
CARTOSAT-1 3.7 02:21:09 52° ESE 02:21:38 56° ENE 02:25:52 10° N
Cosmos 2082 Rocket 2.5 02:16:11 10° NNW 02:21:39 50° ENE 02:23:13 39° ESE
Tianhe-1 3.7 02:27:48 10° WSW 02:28:15 13° WSW 02:28:15 13° WSW
ARIANE 5 R/B 2.4 02:31:09 69° SE 02:31:35 79° ENE 02:35:56 10° N
Cosmos 1933 Rocket 3.6 02:29:27 10° NNW 02:33:46 72° W 02:34:30 57° SSW
Cosmos 1898 Rocket 3.7 02:34:06 49° ESE 02:34:09 49° ESE 02:39:17 10° NNE
SPOT 5 3.1 02:33:36 51° ESE 02:34:28 58° ENE 02:39:39 10° N
COSMOS 2406 3.4 02:29:25 10° NNW 02:35:02 63° WSW 02:36:56 40° S
OAO 3 Rocket 4.1 02:31:20 10° WSW 02:34:12 32° SW 02:34:12 32° SW
Cosmos 1943 Rocket 2.9 02:39:12 35° E 02:39:12 35° E 02:43:30 10° NE
Cosmos 1812 4.5 02:37:33 18° SW 02:39:41 29° WNW 02:43:06 10° NNW
Cosmos 990 Rocket 3.9 02:39:27 60° SSE 02:40:15 71° ESE 02:45:29 10° NNE
SJ 16-02 2.7 02:36:31 11° SW 02:40:27 38° WNW 02:44:37 10° N
Cosmos 923 Rocket 4.2 02:35:24 10° N 02:40:36 55° ENE 02:41:15 51° E
DNEPR-1 R/B 4.3 02:41:13 53° SE 02:41:43 55° ESE 02:46:53 10° NE
Cosmos 2278 Rocket 3.7 02:37:14 10° SW 02:42:24 36° WNW 02:47:35 10° N
Iridium 4 Rocket 4.0 02:42:48 36° SSW 02:45:16 71° W 02:51:12 10° N
Cosmos 1666 3.3 02:42:00 10° NNW 02:45:30 50° W 02:45:30 50° W
Cosmos 2369 Rocket 3.9 02:51:16 19° ENE 02:51:16 19° ENE 02:53:31 10° NE
Meteor 2-12 Rocket 4.3 02:43:49 10° N 02:49:54 80° E 02:51:13 57° SSE
Meteor 1-27 Rocket 3.7 02:52:26 50° SSW 02:54:04 87° W 03:00:02 10° N
Cosmos 2327 Rocket 4.5 02:50:51 10° N 02:57:17 79° E 02:58:38 58° SSE
USA 305 3.2 02:54:02 10° NW 02:57:39 61° WNW 02:57:39 61° WNW
Cosmos 158 Rocket 3.9 02:55:29 10° NNW 03:00:21 66° WSW 03:00:36 65° SW
CZ-4C R/B 3.6 02:54:16 10° NW 03:01:34 48° WSW 03:04:45 34° SSW
NOSS 3-4 (A) 3.9 02:57:50 10° NW 03:05:02 81° WSW 03:07:09 53° SSE
NOSS 3-4 (C) 3.9 02:57:56 10° NW 03:05:09 82° WSW 03:07:15 53° SSE
Cosmos 1340 Rocket 3.9 03:02:39 10° N 03:05:30 40° NNE 03:05:30 40° NNE
Cosmos 1238 Rocket 4.5 03:01:53 10° N 03:06:56 36° ENE 03:06:56 36° ENE
Cosmos 972 Rocket 4.5 03:00:21 10° NNW 03:07:22 89° WSW 03:08:37 62° SSE
Cosmos 1743 4.3 03:04:15 10° N 03:06:30 30° NNE 03:06:30 30° NNE
SL-24 DEB 4.4 03:14:41 68° NW 03:14:41 68° NW 03:18:51 10° N
Cosmos 2154 Rocket 4.1 03:11:02 10° NNW 03:17:18 70° W 03:18:30 56° SSW
USA 306 4.1 03:13:36 10° WNW 03:16:24 36° WNW 03:16:24 36° WNW
ATLAS 2AS CENTAUR R/B 2.6 03:11:13 10° NNW 03:18:30 74° NE 03:19:41 61° ESE
Cosmos 2112 Rocket 4.0 03:13:49 10° NNW 03:19:01 78° NE 03:19:01 78° NE
Cosmos 1833 Rocket 4.2 03:15:56 10° NW 03:20:25 25° WSW 03:21:40 23° WSW
Cosmos 1536 4.1 03:21:44 10° NNW 03:24:37 38° NW 03:24:37 38° NW
Meteor 1-11 Rocket 4.5 03:21:25 10° NNW 03:27:04 46° W 03:28:07 42° WSW
Cosmos 962 Rocket 4.3 03:21:03 10° N 03:27:12 82° E 03:27:28 79° ESE
ERS-1 Rocket 3.9 03:29:55 39° W 03:30:01 39° W 03:34:44 10° NNW
Cosmos 1937 Rocket 3.7 03:33:12 66° WNW 03:33:12 66° WNW 03:38:11 10° NNE
Cosmos 1680 Rocket 4.2 03:40:23 10° NNW 03:44:59 48° W 03:44:59 48° W
Cosmos 2181 Rocket 3.9 03:53:39 83° WNW 03:53:39 83° WNW 03:59:43 10° N
Terra 3.3 03:56:00 29° W 03:56:00 29° W 03:59:30 10° NW
Milstar 3 4.0 03:46:56 10° WSW 03:56:12 39° SW 03:56:12 39° SW
Cosmos 44 4.3 03:55:24 10° NW 03:59:24 45° WNW 03:59:24 45° WNW
Cosmos 2366 rocket 3.9 03:55:09 10° N 04:01:02 79° NNE 04:01:02 79° NNE
Cosmos 1461 4.5 04:04:50 37° NW 04:04:50 37° NW 04:08:41 10° NNE
Cosmos 2082 Rocket 4.0 04:01:14 10° NW 04:05:04 21° W 04:05:04 21° W
Cosmos 1607 4.0 04:12:57 76° NNE 04:12:57 76° NNE 04:18:54 10° NNE
ALOS 2 4.4 04:14:52 28° NNE 04:14:52 28° NNE 04:17:15 10° N
Cosmos 1818 4.3 04:10:06 10° NW 04:14:10 49° NW 04:14:10 49° NW
Centaur D AC-29 4.1 03:46:04 10° WSW 04:19:09 40° SSW 04:19:09 40° SSW
Cosmos 1943 Rocket 3.7 04:20:39 26° W 04:22:09 30° WNW 04:27:02 10° N
ATLAS CENTAUR R/B 4.1 04:30:12 12° NNE 04:30:12 12° NNE 04:30:34 10° NNE
Cosmos 2218 Rocket 4.3 04:20:49 10° NNW 04:26:40 59° WNW 04:26:40 59° WNW
Cosmos 2369 Rocket 3.0 04:33:00 45° WNW 04:33:00 45° WNW 04:38:16 10° N
Cosmos 1656 Rocket 4.3 04:38:21 52° N 04:38:21 52° N 04:42:43 10° NNE
Nadezhda 3 Rocket 4.1 04:41:02 68° NNE 04:41:02 68° NNE 04:46:27 10° N
BREEZE-M DEB (TANK) 4.2 04:31:28 10° WNW 04:43:25 59° NNE 04:43:38 59° NNE
Lacrosse 5 3.9 04:48:12 20° ENE 04:48:12 20° ENE 04:49:51 10° NE
Cosmos 1125 Rocket 4.4 04:54:48 45° N 04:54:48 45° N 04:58:30 10° NNE
ATLAS 2AS CENTAUR R/B 4.4 05:03:48 10° WNW 05:07:07 18° W 05:07:07 18° W
Cosmos 2297 Rocket 4.4 05:23:53 10° N 05:27:53 19° NE 05:30:43 14° E
Cosmos 1934 Rocket 4.3 05:36:56 10° NNW 05:41:59 55° NW 05:41:59 55° NW
Cosmos 2344 4.4 05:43:33 10° NW 05:53:31 78° WSW 05:58:24 46° SSE
SeaSat 1 3.5 05:57:11 10° NNE 06:01:03 41° NNW 06:01:03 41° NNW
COSMOS 2455 3.6 05:57:17 10° NNW 06:03:06 48° ENE 06:04:25 42° E
Meteor 2-20 4.4 06:07:18 78° NNW 06:07:18 78° NNW 06:13:07 10° N
Cosmos 371 Rocket 4.5 06:10:20 38° ENE 06:10:20 38° ENE 06:13:47 10° NNE
Cosmos 1727 Rocket 3.9 06:09:20 85° N 06:09:20 85° N 06:15:33 10° N
Cosmos 2219 4.5 06:07:30 10° N 06:12:45 37° ENE 06:14:52 28° ESE
Helios 1B rocket 4.5 06:09:15 10° NE 06:11:27 23° ENE 06:11:27 23° ENE
SL-16 R/B 3.4 06:15:31 32° ESE 06:17:44 43° ENE 06:23:36 10° N
Lacrosse 4 Rocket 3.4 06:26:20 23° E 06:26:20 23° E 06:28:52 10° NE
ADEOS II 3.7 06:21:09 10° NE 06:25:17 23° E 06:25:56 23° ESE
Lacrosse 5 3.4 06:27:21 27° NW 06:28:06 28° NW 06:32:30 10° NNE
Cosmos 1953 4.2 06:25:57 10° NNE 06:28:48 27° ENE 06:28:48 27° ENE
Cosmos 1932 4.4 06:30:50 72° W 06:31:10 74° WNW 06:37:32 10° NNE
NPP 4.2 06:27:14 10° NNE 06:32:28 49° E 06:32:31 49° ESE
CZ-2D R/B 2.3 06:27:56 10° NNE 06:33:07 62° E 06:33:07 62° E
Cosmos 1455 Rocket 4.1 06:32:55 10° N 06:36:33 41° ENE 06:36:33 41° ENE
Resurs 1-4 Rocket 2.1 06:34:11 10° NNE 06:39:15 72° E 06:39:15 72° E
USA 215 3.1 06:39:06 57° SSE 06:40:36 80° SW 06:47:10 10° NW
MOZ.5/SAFIR/RUBIN 5/SL-8 4.5 06:42:26 47° NNW 06:42:26 47° NNW 06:45:47 10° NNW
Cosmos 1697 Rocket 2.9 06:42:23 58° ESE 06:42:28 58° ESE 06:47:58 10° NNE
Cosmos 1459 Rocket 3.8 06:40:39 10° N 06:46:55 90° W 06:47:35 73° S
Cosmos 1674 4.1 06:50:39 38° NNE 06:50:39 38° NNE 06:53:08 10° NNE
USA 281 3.1 06:49:16 58° SSE 06:50:44 85° WSW 06:57:20 10° NNW
Cosmos 1980 Rocket 3.1 06:54:10 34° SE 06:55:10 37° ESE 07:00:20 10° NE
Cosmos 2016 Rocket 4.0 06:50:33 10° N 06:56:47 73° E 06:58:26 50° SSE
Meteor 2-11 Rocket 4.4 06:51:30 10° N 06:57:41 86° E 06:58:54 60° SSE
Cosmos 2173 Rocket 3.9 06:57:00 10° NNW 07:03:07 65° W 07:03:44 62° SW
Cosmos 2061 Rocket 4.0 07:00:16 10° N 07:06:39 82° E 07:08:42 46° SSE
Timation 2 Rocket 3.7 07:00:41 10° NNW 07:06:40 87° WSW 07:08:17 52° SSE
Cosmos 1626 3.1 07:07:59 45° NE 07:07:59 45° NE 07:10:47 10° NNE
Cosmos 1975 Rocket 3.8 07:08:32 42° NW 07:08:32 42° NW 07:11:51 10° N
ISS -0.5 07:07:06 10° NNW 07:09:07 15° NNE 07:11:07 10° NE
Cosmos 2227 Rocket 2.1 07:04:04 10° NNW 07:09:45 88° WSW 07:10:57 58° SSE
UNK 3.8 07:11:24 66° NW 07:11:24 66° NW 07:15:30 10° NNW
Cosmos 1315 Rocket 4.3 07:08:18 10° NNW 07:10:26 28° NW 07:10:26 28° NW
Cosmos 2297 Rocket 2.1 07:06:47 10° NNW 07:12:24 64° WSW 07:12:27 64° WSW
Cosmos 304 Rocket 3.7 07:13:21 75° WNW 07:13:21 75° WNW 07:18:08 10° NNE
Cosmos 2056 Rocket 3.8 07:13:38 50° SE 07:14:26 56° ESE 07:19:26 10° NNE
Cosmos 2369 3.6 07:14:44 62° S 07:15:44 83° ESE 07:21:30 10° NNE
Cosmos 2278 4.3 07:15:40 40° SSE 07:17:12 50° ESE 07:22:42 10° NNE
ARGOS Delta rocket 3.7 07:14:51 10° N 07:19:35 85° WNW 07:20:01 74° SSW
SL-19 R/B 4.1 07:16:12 10° N 07:21:42 69° WNW 07:22:32 59° WSW
Cosmos 1300 4.4 07:20:01 10° NNE 07:23:27 30° ENE 07:24:55 23° ESE
Cosmos 2082 4.1 07:19:44 10° NNW 07:25:24 64° ENE 07:31:04 10° SSE
Cosmos 1371 Rocket 3.9 07:26:14 60° S 07:27:12 86° ESE 07:32:26 10° NNE
OAO 2 Rocket 3.7 07:29:25 48° SSE 07:29:25 48° SSE 07:34:23 10° E
SL-16 R/B 4.3 07:26:54 10° SE 07:30:47 19° E 07:34:40 10° NE
Cosmos 1025 Rocket 3.3 07:31:57 53° WNW 07:31:57 53° WNW 07:36:04 10° N
Cosmos 2251 Rocket 4.3 07:29:18 10° NW 07:33:16 34° W 07:33:16 34° W
Cosmos 1802 Rocket 4.3 07:28:45 10° NNW 07:34:33 45° W 07:35:31 42° WSW
Cosmos 2123 Rocket 4.2 07:33:54 43° WSW 07:35:18 51° W 07:41:21 10° N
Cosmos 614 Rocket 4.3 07:33:23 10° NNW 07:37:57 43° W 07:37:57 43° W
IRS-1D 3.5 07:33:50 10° NNE 07:39:12 87° WNW 07:40:55 45° SSW
Cosmos 1140 Rocket 3.5 07:34:58 10° NNW 07:40:13 84° ENE 07:43:34 23° SSE
Iridium 2 3.6 07:42:04 76° SSE 07:42:20 83° E 07:46:09 10° N
IDEFIX/ARIANE 42P 2.8 07:41:05 10° NNE 07:46:20 67° E 07:48:54 31° S
Helios 1B rocket 4.1 07:44:48 10° NNW 07:47:45 21° WNW 07:47:45 21° WNW
COSMOS 2455 4.0 07:43:52 10° NW 07:47:29 24° W 07:47:29 24° W
Cosmos 1340 2.8 07:49:44 53° SSE 07:50:26 68° E 07:54:10 10° NNE
Meteor 1-28 Rocket 3.0 07:53:43 63° S 07:54:15 80° WSW 07:57:58 10° NNW
IUS-18 SRM-1 4.4 07:55:13 17° SSE 07:55:13 17° SSE 07:58:38 10° ESE
Cosmos 2219 4.0 07:51:50 10° NW 07:56:43 30° WSW 07:56:43 30° WSW
Timation 1 Rocket 4.4 07:51:27 10° NNW 07:57:15 53° WSW 08:00:28 26° S
Cosmos 2322 Rocket 4.0 07:53:26 10° SSE 07:57:59 26° ESE 08:02:34 10° NE
SL-16 R/B 3.4 08:00:36 28° WSW 08:01:25 29° W 08:06:45 10° NW
NOSS 3-2 (A) 4.3 08:00:10 18° S 08:03:37 38° ESE 08:09:08 10° NE
Lacrosse 4 Rocket 2.7 08:02:37 26° W 08:03:42 29° NW 08:07:35 10° N
Meteor 1-24 Rocket 3.6 08:01:33 28° S 08:04:37 87° W 08:10:04 10° N
Cosmos 2263 Rocket 3.3 07:59:29 10° N 08:04:54 45° ENE 08:10:18 10° SE
ADEOS II 2.7 08:00:11 10° N 08:05:05 41° WNW 08:06:52 31° WSW
Cosmos 1190 Rocket 3.9 08:00:15 10° NNW 08:05:26 68° WSW 08:09:34 16° S
Cosmos 1953 4.3 08:02:51 10° NW 08:04:27 16° WNW 08:04:27 16° WNW
ARIANE 5 R/B 2.9 08:00:59 10° NNE 08:06:04 59° ESE 08:09:44 18° S
IRS-P3 4.2 08:00:51 10° NNE 08:06:13 78° ESE 08:09:39 23° S
IKONOS-2 4.4 08:04:32 30° S 08:06:35 73° WSW 08:10:52 10° NNW
Cosmos 1420 Rocket 4.0 08:07:40 33° SSW 08:10:00 71° WNW 08:15:12 10° NNE
APEX 4.3 08:05:33 10° NW 08:10:13 47° WSW 08:14:48 15° S
Cosmos 1606 Rocket 4.4 08:07:22 10° N 08:11:41 51° E 08:16:00 10° SSE
CZ-2D R/B 3.9 08:09:24 10° NNW 08:12:45 17° WNW 08:14:26 15° W
Cosmos 2228 3.3 08:09:28 10° N 08:13:43 66° E 08:18:00 10° SSE
CZ-4B R/B 3.5 08:11:42 10° NNE 08:16:46 81° ESE 08:20:31 19° S
Resurs 1-4 Rocket 4.0 08:15:56 10° NNW 08:18:37 14° WNW 08:20:20 12° W
ADEOS Rocket 3.6 08:12:28 13° S 08:19:01 58° W 08:26:40 10° NNW
Cosmos 2360 Rocket 4.3 08:16:31 10° SSE 08:20:46 22° E 08:25:01 10° NE
Meteor 2-5 Rocket 4.1 08:21:35 25° SW 08:24:31 46° WNW 08:29:56 10° N
Cosmos 1697 Rocket 4.3 08:24:06 15° W 08:26:48 20° NW 08:30:56 10° N
Cosmos 407 Rocket 4.3 08:22:51 10° NW 08:27:30 31° W 08:29:41 23° SW
Cosmos 676 Rocket 3.9 08:24:05 10° NNW 08:29:20 70° WSW 08:34:35 10° S
GP-B 4.3 08:25:49 10° NNW 08:29:30 26° W 08:30:47 22° WSW
Cosmos 1464 Rocket 4.1 08:24:18 10° N 08:30:31 80° E 08:36:44 10° S
ERS-1 4.5 08:25:33 10° N 08:30:41 81° WNW 08:34:50 16° SSW
CZ-4C R/B 4.0 08:29:51 24° SSW 08:31:52 38° W 08:35:47 10° NNW
Atlas Centaur 2 3.7 08:28:29 18° SSW 08:32:28 29° SSE 08:37:56 10° ESE
Cosmos 292 Rocket 3.8 08:32:03 21° SSW 08:35:14 69° WNW 08:40:06 10° NNE
Cosmos 405 3.1 08:32:25 10° NNW 08:35:49 50° W 08:38:01 19° SSW
Aureole 2 Rocket 1.5 08:35:34 10° NNW 08:38:16 71° WSW 08:40:49 11° SSE
Cosmos 1980 Rocket 3.3 08:35:56 18° WSW 08:39:10 30° WNW 08:44:08 10° N
CENTAUR R/B 3.1 08:34:15 11° S 08:39:27 50° ESE 08:45:46 10° NE
Cosmos 2034 Rocket 4.4 08:34:24 10° N 08:40:44 67° E 08:46:58 10° SSE
Cosmos 2227 4.2 08:40:41 10° NNW 08:46:23 87° ENE 08:51:59 10° SSE
ISS -3.3 08:43:05 10° NW 08:46:27 65° NE 08:49:49 10° ESE
PAYLOAD A 4.0 08:45:41 10° NNE 08:50:24 75° ESE 08:55:04 10° S
Cosmos 2227 Rocket 4.1 08:52:41 10° W 08:52:41 10° W 08:52:41 10° W
Cosmos 1331 Rocket 4.4 08:48:08 10° S 08:53:13 64° ESE 08:58:20 10° NNE
Cosmos 1452 Rocket 3.8 08:49:49 15° SW 08:54:02 53° WNW 08:59:13 10° N
Aureole 1 Rocket 4.0 08:52:51 10° N 08:56:16 46° ENE 09:00:31 10° SE
CZ-2D R/B 3.9 08:53:23 10° N 08:57:42 53° WNW 09:01:54 11° SSW
Cosmos 1300 4.5 08:56:35 10° NW 08:58:46 15° W 08:59:48 13° WSW
FENGYUN 3A 4.3 08:58:29 10° NNE 09:03:47 58° E 09:09:04 10° S
Spot 4 Rocket 4.2 09:01:50 10° N 09:06:54 60° WNW 09:11:56 10° SSW
CZ-2C R/B 2.5 09:01:47 10° N 09:06:57 82° WNW 09:12:08 10° SSW
Cosmos 1346 Rocket 3.3 09:04:06 11° SSW 09:07:39 41° WNW 09:11:23 10° N
Cosmos 389 Rocket 2.3 09:06:05 10° NNW 09:09:34 80° W 09:13:00 10° S
PSLV R/B 4.0 09:05:42 10° NNE 09:09:52 62° E 09:14:02 10° S
ALOS 2.8 09:07:44 10° NNE 09:12:23 63° E 09:16:59 10° S
Cosmos 2333 Rocket 4.2 09:08:51 10° SSE 09:13:37 28° ESE 09:18:24 10° NE
OAO 2 Rocket 3.6 09:08:39 10° W 09:13:50 56° S 09:19:03 10° ESE
SL-16 R/B 2.5 09:08:51 10° SW 09:14:23 55° WNW 09:19:58 10° NNE
Cosmos 1110 Rocket 4.0 09:09:15 10° SSW 09:14:24 73° WNW 09:19:35 10° NNE
Cosmos 1455 2.3 09:11:13 10° NNW 09:14:58 54° W 09:18:43 10° S
Cosmos 1850 Rocket 4.1 09:14:46 10° NNW 09:20:04 64° WSW 09:25:20 10° S
SL-08 R/B 4.2 09:18:06 10° SSW 09:22:08 28° W 09:26:07 10° NW
Cosmos 1328 4.0 09:18:19 10° S 09:22:20 79° E 09:26:19 10° N
Cosmos 1703 3.3 09:18:35 10° SSW 09:22:24 62° W 09:26:15 10° N
IDEFIX/ARIANE 42P 4.4 09:22:21 10° NNW 09:25:19 15° WNW 09:28:18 10° W
Meteor 2-1 Rocket 4.2 09:22:06 10° NNW 09:27:44 69° W 09:33:13 10° S
Cosmos 1741 Rocket 4.1 09:25:32 10° NNW 09:30:37 53° WSW 09:35:40 10° S
NOSS 3-2 (C) 3.3 09:25:52 10° SW 09:31:21 80° NW 09:37:36 10° NNE
